Showing default

PTD-R (TYVAK-0127), 60523

Orbit data source: Space-Track

PTD-R (TYVAK-0127), 60523 is an American payload satellite in SSO that was launched on Fri, 16 Aug 2024 UTC via an FALCON 9 launch vehicle from the Air Force Western Test Range (AFWTR). Payload-class satellites include a variety of spacecraft equipped with specific instruments for various scientific and technological missions. These include communications satellites like Starlink; space stations such as the ISS; scientific satellites like the Hubble; Earth observation satellites from companies like Planet Labs, Umbra, and HawkEye 360; GPS; miniature CubeSats for education and research; and military/defense satellites.

Loading next visibility...
Identifier
60523, 2024-149BH
Orbit
SSO
Country
Flag of USUS
Related business
Manufacturer
Terran Orbital
Mission
Operational Civil Technology
Bus & Motor
CUBESAT 6U, Unknown motor
Mass
~10 kg wet, ~10 kg dry
Launch date (UTC)
2024-08-16 (1 year ago)
Launch vehicle
FALCON 9
Launch site
Air Force Western Test Range (AFWTR)
Object type
Payload
Rocket body
Debris
Shape & HBR
Box + 2 Pan, 1.1 m
Radar Cross Section
0.189 m², Medium (>0.1 m² and < 1m²)

Expand to show TLE details & history
Last TLE update: 8 hours ago

TLE from 8 hours ago
0 PTD-R (TYVAK-0127)
1 60523U 24149BH  26035.18817178  .00093381  00000-0  10755-2 0  9997
2 60523  97.3835 126.8434 0003051   7.6113 352.5190 15.61663893 82438
Epoch: 2026-02-04T04:30Z
TLE epoch observation values (Epoch: 2026-02-04T04:30:58.041Z)
Latitude
-0.00009°
Longitude
-75.25677°
Altitude
383.952 km
Speed
7.681 km/s
True Right ascension
08h 27m 22s
True Declination
0° 00' 00"
Sunlit
Object was in full shadow at epoch
Visualization orbit readout
Latitude
Unknown
Longitude
Unknown
Altitude
Unknown
Speed
Unknown
Apparent Right ascension
Unknown
Apparent Declination
Unknown
Sunlit
N/A
Visualization observer readout
Local Sidereal Time
14:01:53
Azimuth
Unknown
Elevation
Unknown
Doppler factor
Unknown
Orbital elements
Apogee altitude
381.822 km
Perigee altitude
377.698 km
Semi-major axis
6,757.897 km
Eccentricity
0.00031
Inclination
97.3835°
RAAN
126.8434°
Arg. of periapsis
7.6113°
True anomaly
352.51445°
Mean anomaly
352.519°
Eccentric anomaly
352.51672°
Mean motion
3.90684 °/min
Orbital period
92.15 mins
BSTAR
0.0010755
Loading maneuver chart data...
Computing Atmospheric mass density...
Loading historical data...
Loading historical data...
Loading historical data...
Loading historical data...
Loading historical data...
Loading historical data...
Loading historical data...

Documentation

Showing up to 5 results
|